Location: Treviso
(45.6669°N, 12.2430°E)
Time: 00:39:23
(UTC+02:00)

ISS - Pass Details

Date: 26 May 2017
Orbit: 402 x 408 km, 51.6° (Epoch: 30 May)

Event Time Altitude Azimuth Distance (km) Brightness Sun altitude
Rises 23:19:57 0° 269° (W) 2,331 0.4 -18.7°
Reaches altitude 10° 23:22:09 10° 279° (W) 1,470 -0.5 -18.9°
Maximum altitude 23:25:12 34° 347° (NNW) 694 -2.0 -19.1°
Drops below altitude 10° 23:28:16 10° 54° (NE) 1,470 -0.9 -19.3°
Sets 23:30:28 0° 64° (ENE) 2,331 0.1 -19.5°
